Simultaneous Nadir Overpasses (SNOs) Predictions

Prediction of SNOs near equator between AQUA and NPP Satellite Orbit:

Table of predicted SNOs near equator for the next 14.0 days since TLE Epoch: 2/2/2019
Index Date (AQUA) Time (AQUA) AQUA Lat,Lon Date (NPP) Time (NPP) NPP Lat,Lon Distance(km) Time Diff (sec)
1 02/04/2019 16:25:15 -3.73, 137.08 02/04/2019 16:15:56 -3.65, 136.68 45.53 559
2 02/04/2019 17:13:32 -0.77, -54.34 02/04/2019 17:05:27 -0.94, -55.00 75.41 485
3 02/07/2019 07:59:30 29.49, 79.40 02/07/2019 07:49:30 29.51, 78.89 49.44 600
4 02/07/2019 08:41:22 -2.36,-106.75 02/07/2019 08:32:26 -2.24,-107.23 55.53 536
5 02/07/2019 09:29:38 -2.20, 61.84 02/07/2019 09:21:57 -2.35, 61.09 85.22 461
6 02/10/2019 00:09:22 5.51,-159.20 02/09/2019 23:59:34 5.45,-159.51 34.97 588
7 02/10/2019 00:57:28 -0.93, 9.44 02/10/2019 00:48:56 -0.82, 8.86 65.48 512
8 02/10/2019 01:45:45 -3.57, 178.01 02/10/2019 01:38:27 -3.77, 177.18 95.08 438
9 02/12/2019 16:25:28 4.09, -43.01 02/12/2019 16:16:03 3.98, -43.40 44.97 565
10 02/12/2019 17:13:34 0.49, 125.62 02/12/2019 17:05:25 0.65, 124.96 75.40 489
11 02/15/2019 07:59:35 -29.97,-100.71 02/15/2019 07:49:35 -30.24,-101.29 63.21 600
12 02/15/2019 08:41:33 2.68, 73.17 02/15/2019 08:32:32 2.57, 72.69 54.98 541
13 02/15/2019 09:29:39 1.90,-118.20 02/15/2019 09:21:54 2.06,-118.95 85.31 465




NCC Satellite Simultaneous Nadir Overpasses (SNOs) Prediction Service
